OPS 4682 DEB, 38381

Orbit data source: Space-Track

OPS 4682 DEB, 38381 is space debris in LEO originally from a launch on Sat, 03 Apr 1965 UTC launched from the Air Force Western Test Range (AFWTR). Debris objects in space refer to the collection of defunct objects orbiting the Earth. Examples of debris include non-operational satellites, rocket bodies, and fragments generated from explosions, collisions, or faulty payload assembly.

Loading next visibility...
Identifier
38381, 1965-027CJ
Orbit
LEO
Country
Flag of USUS
Related business
Manufacturer
Unknown
Mission
Spacecraft
Bus & Motor
Unknown
Mass
Unknown
Launch date (UTC)
1965-04-03 (61 years ago)
Launch vehicle
Unknown
Launch site
Air Force Western Test Range (AFWTR)
Object type
Payload
Rocket body
Debris
Shape & HBR
Unknown shape, 0.1 m
Radar Cross Section
Small (<0.1 m²)

Expand to show TLE details & history
Last TLE update: 3 days ago

TLE from 3 days ago
0 OPS 4682 DEB
1 38381U 65027CJ  25301.64562830  .00000879  00000-0  28893-2 0  9994
2 38381  90.2538  12.9600 0023367 132.7324 227.5771 13.00090929556003
Epoch: 2025-10-28T15:29Z
TLE epoch observation values (Epoch: 2025-10-28T15:29:42.285Z)
Latitude
0.0001°
Longitude
103.30367°
Altitude
1,276.682 km
Speed
7.212 km/s
True Right ascension
00h 51m 50s
True Declination
0° 00' 00"
Sunlit
Object was in full shadow at epoch
Visualization orbit readout
Latitude
Unknown
Longitude
Unknown
Altitude
Unknown
Speed
Unknown
Apparent Right ascension
Unknown
Apparent Declination
Unknown
Sunlit
N/A
Visualization observer readout
Local Sidereal Time
14:36:41
Azimuth
Unknown
Elevation
Unknown
Doppler factor
Unknown
Orbital elements
Apogee altitude
1,276.703 km
Perigee altitude
1,241.012 km
Semi-major axis
7,636.994 km
Eccentricity
0.00234
Inclination
90.2538°
RAAN
12.96°
Arg. of periapsis
132.7324°
True anomaly
227.37983°
Mean anomaly
227.5771°
Eccentric anomaly
227.47843°
Mean motion
3.25207 °/min
Orbital period
110.7 mins
BSTAR
0.0028893
Loading maneuver chart data...
Computing Atmospheric mass density...
Loading historical data...
Loading historical data...
Loading historical data...
Loading historical data...
Loading historical data...
Loading historical data...
Loading historical data...

Documentation

Showing up to 5 results
|